Bertem, Belgium

5:42 PM CET on January 21, 2017 (GMT +0100)
Brussels Airport

Weather History for EBBR - October, 2013

Change the Weather History Date:

Thursday, October 10, 2013

  Actual Average Record
Temperature  
Mean Temperature 49 °F -  
Max Temperature 55 °F 54 °F 75 °F (2005)
Min Temperature 43 °F 43 °F 35 °F (2012)
Degree Days  
Heating Degree Days 16    
Moisture  
Dew Point 43 °F    
Average Humidity 81    
Maximum Humidity 93    
Minimum Humidity 56    
Precipitation  
Precipitation 0.16 in - - ()
Sea Level Pressure  
Sea Level Pressure 29.82 in    
Wind  
Wind Speed 8 mph ()    
Max Wind Speed 14 mph    
Max Gust Speed -    
Visibility 7.2 miles    
Events Rain    
Averages and records for this station are not official NWS values.
T = Trace of Precipitation, MM = Missing Value Source: Averaged Metar Reports

Daily Weather History Graph

Daily Weather History Graph

Search for Another Location

Airport or City:

Trip Planner

Search our weather history database for the weather conditions in past years. The results will help you decide how hot, cold, wet, or windy it might be!

Date:

Astronomy

Oct. 10, 2013 Rise Set
Actual Time 7:56 AM CEST 6:59 PM CEST
Civil Twilight 7:23 AM CEST 7:32 PM CEST
Nautical Twilight 6:45 AM CEST 8:10 PM CEST
Astronomical Twilight 6:07 AM CEST 8:49 PM CEST
Moon 1:59 PM CEST (10/10) 10:56 PM CEST (10/10)
Length of Visible Light 12h 09m
Length of Day
11h 03m
Waxing Crescent, 33% of the Moon is Illuminated
Oct 10
Waxing Crescent
Oct 12
First Quarter
Oct 19
Full
Oct 27
Last Quarter
Nov 3
New

Hourly Weather History & Observations

Time (CEST) Temp. Windchill Dew Point Humidity Pressure Visibility Wind Dir Wind Speed Gust Speed Precip Events Conditions
12:20 AM 50.0 °F - 46.4 °F 87% 29.86 in 6.2 mi NNW 10.4 mph - N/A Rain Light Rain
12:50 AM 50.0 °F - 46.4 °F 87% 29.86 in 6.2 mi WNW 4.6 mph - N/A   Mostly Cloudy
1:20 AM 50.0 °F - 46.4 °F 87% 29.86 in 6.2 mi West 6.9 mph - N/A   Scattered Clouds
1:50 AM 48.2 °F - 44.6 °F 87% 29.86 in - West 8.1 mph - N/A   Clear
2:00 AM 48 °F - 44 °F 82% 29.87 in 12 mi West 6.7 mph - -   Partly Cloudy
2:20 AM 48.2 °F - 42.8 °F 82% 29.86 in - West 9.2 mph - N/A   Clear
2:50 AM 46.4 °F 41.9 °F 41.0 °F 81% 29.86 in 6.2 mi West 9.2 mph - N/A   Scattered Clouds
3:20 AM 46.4 °F 41.9 °F 41.0 °F 81% 29.83 in - West 9.2 mph - N/A   Clear
3:50 AM 46.4 °F 41.5 °F 39.2 °F 76% 29.83 in - West 10.4 mph - N/A   Clear
4:20 AM 44.6 °F 40.2 °F 39.2 °F 81% 29.83 in - WSW 8.1 mph - N/A   Clear
4:50 AM 44.6 °F 39.7 °F 39.2 °F 81% 29.80 in - WSW 9.2 mph - N/A   Clear
5:00 AM 45 °F - 39 °F 72% 29.83 in 12 mi WSW 8.9 mph - -  
5:20 AM 44.6 °F 40.2 °F 39.2 °F 81% 29.80 in 6.2 mi West 8.1 mph - N/A   Scattered Clouds
5:50 AM 44.6 °F 39.2 °F 41.0 °F 87% 29.80 in 6.2 mi West 10.4 mph - N/A   Partly Cloudy
6:20 AM 44.6 °F 39.7 °F 39.2 °F 81% 29.80 in 6.2 mi West 9.2 mph - N/A   Partly Cloudy
6:50 AM 44.6 °F 40.2 °F 39.2 °F 81% 29.80 in 6.2 mi West 8.1 mph - N/A   Partly Cloudy
7:20 AM 44.6 °F 38.8 °F 41.0 °F 87% 29.80 in 2.5 mi NW 11.5 mph - N/A Rain Rain Showers
7:50 AM 44.6 °F 40.7 °F 41.0 °F 87% 29.80 in 6.2 mi WNW 6.9 mph - N/A Rain Light Rain Showers
8:00 AM 44 °F - 40 °F 83% 29.82 in 5 mi WNW 6.7 mph - - Rain Light Rain Showers
8:20 AM 44.6 °F 39.7 °F 41.0 °F 87% 29.80 in 6.2 mi WSW 9.2 mph - N/A   Mostly Cloudy
8:50 AM 44.6 °F 40.7 °F 41.0 °F 87% 29.80 in 5.0 mi West 6.9 mph - N/A Rain Light Rain Showers
9:20 AM 44.6 °F 41.4 °F 41.0 °F 87% 29.80 in 6.2 mi West 5.8 mph - N/A   Mostly Cloudy
9:50 AM 46.4 °F 41.9 °F 42.8 °F 87% 29.80 in 6.2 mi WSW 9.2 mph - N/A   Scattered Clouds
10:20 AM 46.4 °F 41.5 °F 42.8 °F 87% 29.80 in 6.2 mi West 10.4 mph - N/A   Scattered Clouds
10:50 AM 48.2 °F - 42.8 °F 82% 29.80 in 6.2 mi West 10.4 mph - N/A   Mostly Cloudy
11:00 AM 48 °F - 42 °F 73% 29.83 in 19 mi West 11.2 mph - -   Mostly Cloudy
11:20 AM 50.0 °F - 42.8 °F 76% 29.80 in 6.2 mi West 10.4 mph - N/A Rain Light Rain Showers
11:50 AM 50.0 °F - 42.8 °F 76% 29.80 in 6.2 mi West 11.5 mph - N/A   Partly Cloudy
12:20 PM 51.8 °F - 42.8 °F 71% 29.83 in 6.2 mi West 10.4 mph - N/A   Partly Cloudy
12:50 PM 53.6 °F - 42.8 °F 67% 29.83 in 6.2 mi West 9.2 mph - N/A   Partly Cloudy
1:20 PM 53.6 °F - 42.8 °F 67% 29.83 in 6.2 mi WNW 8.1 mph - N/A   Scattered Clouds
1:50 PM 53.6 °F - 42.8 °F 67% 29.83 in 6.2 mi NW 6.9 mph - N/A   Mostly Cloudy
2:00 PM 53 °F - 42 °F 56% 29.84 in 19 mi NW 6.7 mph - -   Partly Cloudy
2:20 PM 53.6 °F - 42.8 °F 67% 29.83 in 6.2 mi NW 8.1 mph - N/A   Mostly Cloudy
2:50 PM 51.8 °F - 44.6 °F 76% 29.83 in 6.2 mi WSW 5.8 mph - N/A   Mostly Cloudy
3:20 PM 51.8 °F - 44.6 °F 76% 29.83 in 6.2 mi WNW 11.5 mph - N/A   Mostly Cloudy
3:50 PM 50.0 °F - 44.6 °F 82% 29.83 in 6.2 mi NW 13.8 mph - N/A   Scattered Clouds
4:20 PM 51.8 °F - 42.8 °F 71% 29.83 in 6.2 mi NW 11.5 mph - N/A   Partly Cloudy
4:50 PM 50.0 °F - 41.0 °F 71% 29.83 in 6.2 mi WNW 11.5 mph - N/A   Partly Cloudy
5:00 PM 50 °F - 42 °F 65% 29.85 in 19 mi WNW 11.2 mph - -   Partly Cloudy
5:20 PM 50.0 °F - 41.0 °F 71% 29.83 in 6.2 mi WNW 11.5 mph - N/A   Partly Cloudy
5:50 PM 50.0 °F - 42.8 °F 76% 29.83 in 6.2 mi WNW 12.7 mph - N/A   Partly Cloudy
6:20 PM 48.2 °F - 42.8 °F 82% 29.80 in 6.2 mi WNW 10.4 mph - N/A   Partly Cloudy
6:50 PM 48.2 °F - 44.6 °F 87% 29.83 in 6.2 mi West 10.4 mph - N/A   Partly Cloudy
7:20 PM 46.4 °F 42.9 °F 44.6 °F 93% 29.83 in 6.2 mi West 6.9 mph - N/A   Partly Cloudy
7:50 PM 46.4 °F 42.9 °F 44.6 °F 93% 29.80 in 6.2 mi WSW 6.9 mph - N/A   Scattered Clouds
8:00 PM 47 °F - 44 °F 84% 29.83 in 22 mi WSW 6.7 mph - -   Partly Cloudy
8:20 PM 46.4 °F 43.5 °F 44.6 °F 93% 29.80 in 6.2 mi WSW 5.8 mph - N/A   Partly Cloudy
8:50 PM 46.4 °F 42.9 °F 44.6 °F 93% 29.80 in 6.2 mi WSW 6.9 mph - N/A   Scattered Clouds
9:20 PM 48.2 °F - 44.6 °F 87% 29.80 in 6.2 mi WSW 9.2 mph - N/A   Mostly Cloudy
9:50 PM 48.2 °F - 44.6 °F 87% 29.80 in 6.2 mi West 9.2 mph - N/A   Mostly Cloudy
10:20 PM 48.2 °F - 44.6 °F 87% 29.80 in 6.2 mi West 6.9 mph - N/A Rain Light Rain
10:50 PM 48.2 °F - 44.6 °F 87% 29.80 in 6.2 mi West 6.9 mph - N/A   Mostly Cloudy
11:00 PM 48 °F - 44 °F 82% 29.82 in 9 mi West 6.7 mph - - Rain Light Rain
11:20 PM 48.2 °F - 44.6 °F 87% 29.80 in 6.2 mi WNW 5.8 mph - N/A   Mostly Cloudy
11:50 PM 48.2 °F - 44.6 °F 87% 29.80 in 6.2 mi WNW 4.6 mph - N/A   Mostly Cloudy